1500526800.08,50988,19.88,74256.0,14.05,-17.69,-19.07,0,*47
1500526801.28,50989,19.94,74260.3,14.05,-17.73,-19.07,0,*4D
1500526802.54,50990,19.94,74260.5,14.11,-17.55,-18.89,0,*43
1500526803.78,50991,19.94,74260.3,14.09,-17.63,-18.89,0,*4E
1500526804.98,50992,19.94,74258.5,14.13,-17.31,-18.49,0,*4D
1500526806.23,50993,19.94,74260.3,14.11,-17.25,-18.45,0,*47
1500526807.47,50994,19.88,74258.0,14.13,-17.21,-18.55,0,*47
1500526808.73,50995,19.88,74258.3,14.15,-17.21,-18.49,0,*4D
1500526809.95,50996,19.94,74262.0,14.15,-16.89,-18.21,0,*43
1500526811.23,50997,19.88,74258.0,14.15,-16.69,-17.97,0,*4E
1500526812.48,50998,19.94,74260.3,14.15,-17.21,-18.49,0,*40
1500526813.76,50999,19.88,74256.8,14.19,-17.07,-18.31,0,*46
1500526815.01,51000,19.94,74260.5,14.17,-17.11,-18.35,0,*43
1500526816.3,51001,19.94,74258.0,14.21,-16.65,-17.97,0,*42
1500526817.53,51002,19.94,74258.3,14.23,-16.75,-17.93,0,*46
1500526818.79,51003,19.94,74258.0,14.21,-16.97,-18.31,0,*4E
1500526820.07,51004,19.94,74260.5,14.25,-17.25,-18.55,0,*47
1500526821.31,51005,19.94,74260.3,14.25,-16.83,-18.07,0,*4C
1500526822.53,51006,19.94,74260.5,14.25,-16.97,-18.17,0,*4B
1500526823.8,51007,19.94,74262.0,14.25,-18.07,-19.57,0,*48
1500526825.05,51008,19.94,74260.8,14.25,-18.55,-19.99,0,*42
1500526826.31,51009,19.88,74256.5,14.25,-18.35,-19.71,0,*43
1500526827.54,51010,19.94,74262.3,14.25,-17.87,-19.13,0,*49
1500526828.82,51011,19.94,74260.0,14.25,-17.25,-18.55,0,*43
1500526830.05,51012,19.94,74258.8,14.27,-16.83,-18.01,0,*4E
1500526831.27,51013,19.94,74260.0,14.27,-16.55,-17.87,0,*45
1500526832.53,51014,19.94,74260.0,14.31,-16.69,-17.97,0,*4B
1500526833.77,51015,19.94,74262.3,14.31,-17.11,-18.59,0,*49
1500526835.0,51016,19.94,74258.3,14.31,-17.21,-18.45,0,*44
1500526836.25,51017,19.94,74258.5,14.33,-17.31,-18.55,0,*47
1500526837.49,51018,19.94,74258.5,14.33,-17.31,-18.59,0,*44
1500526838.74,51019,19.94,74262.3,14.33,-17.79,-19.17,0,*42
1500526839.97,51020,19.94,74262.3,14.35,-17.55,-18.73,0,*43
1500526841.2,51021,19.94,74260.8,14.35,-17.17,-18.45,0,*41
1500526842.46,51022,19.88,74260.0,14.35,-17.07,-18.35,0,*44
1500526843.67,51023,19.94,74258.8,14.35,-16.89,-18.07,0,*43
1500526844.89,51024,19.94,74262.0,14.35,-17.35,-18.59,0,*49
1500526846.15,51025,19.94,74260.0,14.37,-17.25,-18.49,0,*4A
1500526847.4,51026,19.94,74260.3,14.37,-17.03,-18.41,0,*45
1500526848.64,51027,19.94,74256.3,14.37,-16.75,-18.07,0,*46
1500526849.9,51028,19.94,74262.5,14.41,-16.65,-17.87,0,*4E
1500526851.14,51029,19.94,74256.3,14.41,-17.35,-18.59,0,*47
1500526852.4,51030,19.94,74256.3,14.41,-17.45,-18.65,0,*47
1500526853.63,51031,19.94,74260.3,14.39,-18.31,-19.37,0,*43
1500526854.88,51032,19.94,74258.8,14.41,-17.83,-19.23,0,*4C
1500526856.13,51033,19.94,74258.3,14.41,-17.87,-19.23,0,*49
1500526857.36,51034,19.94,74262.8,14.43,-17.41,-18.83,0,*4D
1500526858.58,51035,19.94,74262.3,14.43,-17.35,-18.59,0,*48
1500526859.83,51036,19.94,74262.0,14.41,-17.69,-18.93,0,*46
1500526861.08,51037,19.94,74260.5,14.45,-17.45,-18.65,0,*44
1500526862.28,51038,19.94,74262.3,14.43,-17.69,-19.03,0,*42
1500526863.51,51039,19.94,74262.8,14.43,-17.55,-18.73,0,*4A
1500526864.72,51040,19.94,74260.0,14.43,-17.31,-18.59,0,*4E
1500526865.95,51041,19.94,74262.0,14.43,-17.63,-18.73,0,*40
1500526867.15,51042,19.94,74260.5,14.43,-17.83,-19.17,0,*4E
1500526868.4,51043,19.94,74260.5,14.47,-17.63,-18.93,0,*48
1500526869.59,51044,19.88,74256.0,14.43,-17.69,-18.99,0,*4B
1500526870.82,51045,19.94,74264.0,14.43,-18.89,-20.25,0,*47
1500526872.03,51046,19.94,74262.8,14.43,-18.69,-20.09,0,*44
1500526873.29,51047,19.94,74258.8,14.43,-19.61,-20.99,0,*45
1500526874.56,51048,19.94,74262.3,14.41,-19.57,-20.89,0,*4C
1500526875.77,51049,19.94,74260.0,14.39,-18.79,-20.25,0,*49
1500526877.01,51050,19.94,74258.3,14.39,-18.89,-20.15,0,*4D
1500526878.29,51051,19.94,74262.0,14.41,-18.35,-19.65,0,*49
1500526879.49,51052,19.94,74262.0,14.39,-17.73,-19.03,0,*48
1500526880.68,51053,19.94,74260.5,14.39,-17.73,-19.03,0,*49
1500526881.88,51054,19.94,74262.8,14.39,-17.73,-19.03,0,*4E
1500526883.09,51055,19.94,74258.5,14.41,-17.73,-19.07,0,*44
1500526884.32,51056,19.94,74262.8,14.39,-18.45,-19.65,0,*46
1500526885.57,51057,19.94,74262.3,14.41,-18.17,-19.41,0,*49
1500526886.79,51058,19.94,74262.0,14.41,-17.73,-19.03,0,*4D
1500526887.99,51059,19.94,74262.8,14.39,-17.87,-19.07,0,*4C
1500526889.22,51060,19.94,74260.5,14.41,-17.87,-19.17,0,*48
1500526890.5,51061,19.94,74262.0,14.41,-18.31,-19.65,0,*4E
1500526891.72,51062,19.94,74258.8,14.41,-17.69,-19.03,0,*4F
1500526892.97,51063,19.94,74258.5,14.41,-16.97,-18.31,0,*4E
1500526894.17,51064,19.94,74258.8,14.43,-16.79,-18.17,0,*4F
1500526895.45,51065,19.94,74258.8,14.45,-16.69,-17.93,0,*4A
1500526896.67,51066,19.94,74258.5,14.45,-16.45,-17.73,0,*49
1500526897.93,51067,19.94,74262.0,14.45,-16.55,-17.79,0,*43
1500526899.15,51068,19.94,74262.3,14.47,-16.75,-17.93,0,*48
1500526900.41,51069,19.94,74258.0,14.49,-16.79,-18.01,0,*4F
1500526901.66,51070,19.94,74260.3,14.49,-16.69,-18.11,0,*47
1500526902.92,51071,19.94,74260.0,14.53,-16.51,-17.79,0,*47
1500526904.2,51072,19.94,74262.3,14.55,-16.51,-17.79,0,*42
1500526905.47,51073,19.94,74260.3,14.55,-16.51,-17.79,0,*43
1500526906.72,51074,19.94,74256.0,14.55,-16.31,-17.49,0,*41
1500526907.98,51075,19.94,74256.0,14.57,-16.17,-17.45,0,*4A
1500526909.23,51076,19.94,74262.0,14.61,-16.13,-17.55,0,*49
1500526910.44,51077,19.94,74258.8,14.61,-16.41,-17.73,0,*4B
1500526911.64,51078,19.94,74258.3,14.61,-16.79,-18.17,0,*42
1500526912.84,51079,19.94,74262.0,14.61,-17.31,-18.65,0,*4B
1500526914.1,51080,19.94,74256.5,14.61,-17.59,-18.93,0,*4A
1500526915.33,51081,19.94,74256.8,14.61,-17.41,-18.65,0,*4B
1500526916.56,51082,19.94,74256.5,14.61,-17.87,-19.23,0,*41
1500526917.76,51083,19.94,74258.8,14.61,-17.87,-19.13,0,*43
1500526918.96,51084,19.94,74258.3,14.61,-17.73,-19.07,0,*4A
1500526920.19,51085,19.94,74258.8,14.61,-17.17,-18.49,0,*42
1500526921.39,51086,19.94,74258.8,14.61,-17.31,-18.49,0,*45
1500526922.65,51087,19.94,74260.8,14.61,-17.07,-18.35,0,*4A
1500526923.92,51088,19.94,74256.0,14.63,-17.21,-18.55,0,*45
1500526925.16,51089,19.94,74258.0,14.63,-17.79,-19.07,0,*4F
1500526926.44,51090,19.94,74260.8,14.63,-17.97,-19.31,0,*42
1500526927.67,51091,19.94,74258.5,14.65,-17.79,-19.17,0,*41
1500526928.89,51092,19.94,74260.5,14.65,-17.87,-19.27,0,*40
1500526930.11,51093,19.94,74262.3,14.63,-17.69,-19.07,0,*45
1500526931.34,51094,19.94,74260.3,14.63,-17.49,-18.73,0,*42
1500526932.56,51095,19.94,74260.3,14.63,-17.69,-19.03,0,*47
1500526933.8,51096,19.94,74260.5,14.63,-17.79,-19.07,0,*41
1500526935.02,51097,19.94,74258.8,14.65,-17.79,-19.17,0,*47
1500526936.27,51098,19.94,74258.8,14.65,-17.59,-18.93,0,*47
1500526937.53,51099,19.94,74258.5,14.63,-17.41,-18.73,0,*47
1500526938.75,51100,19.94,74256.3,14.65,-17.03,-18.25,0,*45
1500526939.97,51101,19.94,74258.5,14.67,-16.97,-18.25,0,*4A
1500526941.19,51102,19.94,74260.5,14.65,-17.07,-18.25,0,*43
1500526942.4,51103,19.94,74258.3,14.65,-16.83,-18.11,0,*48
1500526943.63,51104,19.94,74258.0,14.67,-16.83,-18.11,0,*4D
1500526944.83,51105,19.94,74258.3,14.69,-16.83,-18.17,0,*44
1500526946.05,51106,19.94,74260.0,14.69,-16.83,-18.07,0,*46
1500526947.28,51107,19.94,74258.5,14.69,-16.55,-17.93,0,*4E
1500526948.51,51108,19.94,74260.0,14.69,-16.51,-17.83,0,*44
1500526949.75,51109,19.94,74258.0,14.71,-16.55,-17.69,0,*4C
1500526951.0,51110,19.94,74256.3,14.71,-16.51,-17.73,0,*4B
1500526952.23,51111,19.94,74258.5,14.77,-16.37,-17.63,0,*4D
1500526953.48,51112,19.94,74258.5,14.75,-16.37,-17.63,0,*4C
1500526954.69,51113,19.94,74256.0,14.77,-16.41,-17.73,0,*4F
1500526955.92,51114,19.94,74260.8,14.77,-16.55,-17.79,0,*47
1500526957.15,51115,19.94,74258.0,14.77,-16.59,-17.93,0,*4E
1500526958.37,51116,19.94,74262.3,14.79,-16.89,-18.17,0,*4D
1500526959.64,51117,19.94,74260.3,14.83,-17.11,-18.55,0,*4F
1500526960.88,51118,19.94,74260.8,14.79,-17.79,-19.07,0,*4D
1500526962.12,51119,19.94,74260.8,14.79,-17.79,-19.07,0,*4C
1500526963.4,51120,19.94,74256.8,14.79,-17.45,-18.93,0,*45
1500526964.65,51121,19.94,74256.3,14.79,-17.41,-18.83,0,*41
1500526965.88,51122,19.94,74258.3,14.81,-17.45,-18.79,0,*44
1500526967.1,51123,19.94,74258.5,14.81,-17.41,-18.79,0,*41
1500526968.32,51124,19.94,74256.0,14.81,-17.31,-18.59,0,*43
1500526969.54,51125,19.94,74258.0,14.81,-17.55,-18.83,0,*47
1500526970.78,51126,19.94,74258.0,14.79,-17.55,-18.83,0,*43
1500526972.06,51127,19.94,74258.5,14.79,-17.55,-18.93,0,*43
1500526973.34,51128,19.94,74258.3,14.79,-17.59,-18.93,0,*40
1500526974.57,51129,19.94,74260.3,14.81,-17.45,-18.73,0,*45
1500526975.79,51130,19.94,74260.8,14.81,-17.55,-18.83,0,*43
1500526977.04,51131,19.94,74258.8,14.83,-17.55,-18.79,0,*45
1500526978.29,51132,19.94,74258.5,14.79,-16.79,-18.01,0,*43
1500526979.49,51133,19.94,74258.3,14.81,-16.83,-18.21,0,*42
1500526980.73,51134,19.94,74260.3,14.81,-16.79,-18.01,0,*42
1500526981.97,51135,19.94,74258.0,14.81,-17.17,-18.59,0,*47
1500526983.17,51136,19.94,74258.8,14.85,-16.45,-17.73,0,*41
1500526984.37,51137,19.94,74258.3,14.85,-16.79,-18.17,0,*42
1500526985.58,51138,19.94,74260.0,14.85,-17.83,-19.17,0,*48
1500526986.8,51139,19.94,74256.0,14.85,-17.63,-19.03,0,*42
1500526988.0,51140,19.94,74258.5,14.85,-17.35,-18.73,0,*49
1500526989.21,51141,19.94,74256.5,14.85,-16.59,-17.87,0,*47
1500526990.42,51142,19.94,74256.5,14.85,-16.37,-17.69,0,*4C
1500526991.69,51143,19.94,74262.3,14.87,-16.31,-17.63,0,*43
1500526992.93,51144,19.94,74258.3,14.89,-16.41,-17.79,0,*46
1500526994.18,51145,19.94,74256.8,14.89,-16.65,-18.01,0,*41
1500526995.44,51146,19.94,74258.3,14.89,-16.51,-18.01,0,*45
1500526996.69,51147,19.94,74258.3,14.89,-16.69,-18.01,0,*4F
1500526997.95,51148,19.94,74260.0,14.91,-17.41,-18.73,0,*47
1500526999.2,51149,19.94,74260.3,14.91,-17.07,-18.25,0,*47
1500527000.48,51150,19.94,74256.8,14.91,-16.65,-18.01,0,*4C
1500527001.68,51151,19.94,74256.5,14.93,-16.97,-18.41,0,*46
1500527002.94,51152,19.94,74258.5,14.93,-17.21,-18.55,0,*4C
1500527004.16,51153,19.94,74258.3,14.93,-17.55,-18.79,0,*40
1500527005.41,51154,19.94,74258.5,14.93,-17.21,-18.55,0,*4A
1500527006.64,51155,19.94,74256.5,14.93,-18.59,-20.09,0,*49
1500527007.87,51156,19.94,74256.8,14.91,-18.65,-20.09,0,*47
1500527009.15,51157,19.94,74260.0,14.91,-18.55,-19.81,0,*4F
1500527010.39,51158,19.94,74258.5,14.91,-17.55,-18.79,0,*49
1500527011.61,51159,19.94,74256.8,14.91,-17.69,-19.03,0,*4B
1500527012.84,51160,19.94,74258.0,14.91,-18.17,-19.47,0,*47
1500527014.12,51161,19.94,74258.0,14.91,-18.59,-19.85,0,*42
1500527015.35,51162,19.94,74258.8,14.87,-18.73,-20.09,0,*40
1500527016.62,51163,19.94,74256.0,14.87,-19.17,-20.49,0,*46
1500527017.9,51164,19.94,74258.5,14.87,-18.89,-20.19,0,*42
1500527019.16,51165,19.94,74258.0,14.87,-18.21,-19.57,0,*41
1500527020.39,51166,19.94,74258.0,14.87,-18.07,-19.47,0,*47
1500527021.63,51167,19.94,74260.3,14.87,-17.83,-19.17,0,*40
1500527022.91,51168,19.94,74260.0,14.87,-17.97,-19.31,0,*4E
1500527024.16,51169,19.94,74258.3,14.87,-17.63,-19.03,0,*45
1500527025.38,51170,19.94,74258.0,14.89,-17.59,-18.79,0,*46
1500527026.62,51171,19.94,74258.0,14.89,-18.21,-19.57,0,*4A
1500527027.85,51172,19.94,74260.5,14.87,-18.69,-20.05,0,*46
1500527029.13,51173,19.94,74258.3,14.87,-18.89,-20.35,0,*4A
1500527030.39,51174,19.94,74258.3,14.87,-18.25,-19.61,0,*40
1500527031.62,51175,19.94,74258.3,14.87,-17.83,-19.17,0,*43
1500527032.86,51176,19.94,74258.5,14.87,-17.83,-19.17,0,*40
1500527034.11,51177,19.94,74258.0,14.89,-17.93,-19.23,0,*49
1500527035.37,51178,19.94,74258.8,14.87,-17.97,-19.47,0,*4E
1500527036.62,51179,19.94,74258.8,14.87,-18.25,-19.61,0,*4D
1500527037.85,51180,19.94,74262.0,14.89,-18.21,-19.61,0,*41
1500527039.11,51181,19.94,74258.8,14.89,-17.93,-19.27,0,*44
1500527040.39,51182,19.94,74260.8,14.87,-17.97,-19.27,0,*4D
1500527041.65,51183,19.94,74260.5,14.87,-17.79,-19.17,0,*4F
1500527042.9,51184,19.94,74260.3,14.87,-18.25,-19.61,0,*4F
1500527044.13,51185,19.94,74262.3,14.89,-18.49,-19.85,0,*40
1500527045.36,51186,19.94,74260.0,14.87,-18.21,-19.47,0,*4D
1500527046.59,51187,19.94,74260.0,14.89,-18.07,-19.27,0,*40
1500527047.85,51188,19.94,74260.5,14.89,-17.93,-19.27,0,*4D
1500527049.05,51189,19.94,74258.0,14.89,-18.45,-19.75,0,*4F
1500527050.29,51190,19.94,74258.5,14.87,-18.69,-19.95,0,*49
1500527051.55,51191,19.94,74262.0,14.87,-18.25,-19.65,0,*4F
1500527052.78,51192,19.94,74262.5,14.87,-17.83,-19.13,0,*4E
1500527054.04,51193,19.94,74258.5,14.87,-16.79,-18.35,0,*4E
1500527055.3,51194,19.94,74258.3,14.87,-16.75,-17.93,0,*46
1500527056.53,51195,19.94,74260.0,14.89,-17.17,-18.49,0,*44
1500527057.77,51196,19.94,74256.8,14.91,-16.83,-18.11,0,*4F
1500527058.99,51197,19.94,74262.5,14.91,-17.69,-19.03,0,*49
1500527060.21,51198,19.94,74258.5,14.93,-18.01,-19.47,0,*45
1500527061.45,51199,19.94,74262.5,14.93,-17.97,-19.17,0,*41
1500527062.7,51200,19.94,74258.5,14.93,-17.59,-18.93,0,*4D
1500527063.93,51201,19.94,74262.0,14.93,-17.25,-18.65,0,*4E
1500527065.13,51202,19.94,74260.8,14.93,-16.83,-18.25,0,*44
1500527066.33,51203,20.0,74262.3,14.93,-16.93,-18.17,0,*45
1500527067.6,51204,19.94,74262.8,14.91,-17.21,-18.59,0,*42
1500527068.83,51205,19.94,74256.8,14.93,-17.25,-18.65,0,*4A
1500527070.08,51206,19.94,74260.0,14.95,-17.03,-18.41,0,*4D
1500527071.33,51207,19.94,74260.3,14.95,-17.03,-18.25,0,*4E
1500527072.58,51208,19.94,74258.3,14.99,-17.25,-18.49,0,*43
1500527073.81,51209,19.94,74260.0,14.99,-16.83,-18.17,0,*44
1500527075.07,51210,20.0,74260.8,14.99,-16.89,-18.31,0,*42
1500527076.3,51211,19.94,74260.0,15.01,-16.97,-18.35,0,*48
1500527077.53,51212,19.94,74258.8,15.03,-16.93,-18.11,0,*4B
1500527078.79,51213,19.94,74260.5,15.03,-17.21,-18.41,0,*47
1500527080.05,51214,20.0,74260.8,15.03,-17.41,-18.65,0,*40
1500527081.31,51215,19.94,74256.5,15.03,-17.11,-18.49,0,*4A
1500527082.57,51216,19.94,74260.3,15.03,-16.69,-17.87,0,*4A
1500527083.83,51217,19.94,74262.0,15.03,-16.79,-18.01,0,*4B
1500527085.12,51218,19.94,74256.0,15.03,-16.31,-17.59,0,*4A
1500527086.33,51219,20.0,74260.5,15.05,-16.45,-17.83,0,*49
1500527087.57,51220,19.94,74260.0,15.07,-16.31,-17.69,0,*46
1500527088.83,51221,20.0,74266.0,15.09,-17.03,-18.31,0,*4B
1500527090.05,51222,20.0,74262.0,15.09,-17.31,-18.55,0,*4B
1500527091.3,51223,19.94,74262.5,15.11,-17.21,-18.45,0,*43
1500527092.5,51224,20.0,74262.8,15.09,-17.31,-18.65,0,*4E
1500527093.72,51225,20.0,74260.5,15.09,-17.45,-18.79,0,*41
1500527095.0,51226,20.0,74262.8,15.11,-17.59,-18.93,0,*42
1500527096.25,51227,19.94,74256.8,15.11,-17.21,-18.45,0,*47
1500527097.51,51228,19.94,74256.5,15.11,-16.65,-17.83,0,*4C
1500527098.78,51229,19.94,74260.0,15.11,-16.65,-17.87,0,*49
1500527100.01,51230,19.94,74260.5,15.11,-16.55,-17.83,0,*46
1500527101.21,51231,20.0,74260.3,15.13,-16.37,-17.73,0,*4E
1500527102.48,51232,19.94,74256.3,15.15,-16.51,-17.93,0,*45
1500527103.76,51233,19.94,74258.8,15.15,-16.51,-17.63,0,*4B
1500527105.01,51234,20.0,74260.8,15.17,-16.27,-17.49,0,*47
1500527106.3,51235,20.0,74260.5,15.17,-16.65,-17.97,0,*43
1500527107.55,51236,19.94,74258.3,15.17,-17.79,-19.13,0,*4E
1500527108.78,51237,19.94,74258.8,15.17,-18.07,-19.37,0,*4F
1500527110.02,51238,19.94,74258.8,15.17,-17.35,-18.69,0,*44
1500527111.27,51239,20.0,74260.8,15.17,-17.17,-18.41,0,*4F
1500527112.5,51240,19.94,74256.0,15.21,-17.49,-18.83,0,*41
1500527113.72,51241,20.0,74260.0,15.17,-17.69,-19.03,0,*4E
1500527114.99,51242,19.94,74258.8,15.17,-17.93,-19.23,0,*4A
1500527116.24,51243,20.0,74260.0,15.15,-17.55,-18.83,0,*48
1500527117.49,51244,20.0,74260.3,15.17,-17.03,-18.41,0,*40
1500527118.75,51245,20.0,74256.5,15.17,-17.25,-18.49,0,*4D
1500527120.01,51246,20.0,74258.5,15.21,-18.21,-19.57,0,*4E
1500527121.24,51247,20.0,74262.0,15.17,-18.73,-20.09,0,*4C
1500527122.51,51248,20.0,74262.5,15.17,-19.17,-20.53,0,*4F
1500527123.74,51249,20.0,74258.0,15.13,-19.37,-20.79,0,*40
1500527124.97,51250,20.0,74258.8,15.13,-19.17,-20.49,0,*49
1500527126.18,51251,19.94,74254.3,15.13,-18.73,-19.99,0,*4C
1500527127.42,51252,20.0,74258.8,15.11,-18.73,-20.15,0,*43
1500527128.65,51253,20.0,74256.3,15.09,-18.59,-19.99,0,*4D
1500527129.87,51254,20.0,74258.3,15.09,-18.69,-20.15,0,*47
1500527131.12,51255,20.0,74258.5,15.11,-18.73,-20.15,0,*44
1500527132.35,51256,20.0,74256.3,15.09,-18.79,-20.15,0,*44
1500527133.59,51257,20.0,74258.8,15.09,-19.13,-20.53,0,*4A
1500527134.84,51258,20.0,74258.8,15.05,-19.41,-20.79,0,*46
1500527136.09,51259,20.0,74258.8,15.05,-19.41,-20.79,0,*47
1500527137.33,51260,20.0,74258.3,15.05,-19.71,-21.23,0,*40
1500527138.59,51261,20.0,74260.5,15.03,-19.57,-21.09,0,*4B
1500527139.83,51262,20.0,74258.0,15.03,-19.99,-21.39,0,*49
1500527141.06,51263,20.0,74258.5,15.01,-19.37,-20.83,0,*4E
1500527142.34,51264,19.94,74258.8,14.99,-19.41,-20.99,0,*43
1500527143.55,51265,20.0,74256.3,15.01,-19.99,-21.43,0,*41
1500527144.81,51266,20.0,74260.3,14.95,-19.51,-20.99,0,*4C
1500527146.05,51267,20.0,74262.3,14.95,-19.13,-20.69,0,*44
1500527147.32,51268,20.0,74256.8,14.95,-19.31,-20.43,0,*43
1500527148.55,51269,20.0,74258.3,14.93,-19.07,-20.49,0,*4B
1500527149.77,51270,20.0,74258.3,14.93,-19.17,-20.63,0,*4A
1500527151.02,51271,20.0,74260.5,14.91,-18.89,-20.29,0,*41
1500527152.24,51272,20.0,74258.5,14.91,-18.11,-19.51,0,*46
1500527153.5,51273,20.0,74262.0,14.91,-18.41,-19.81,0,*4F
1500527154.73,51274,20.0,74258.5,14.93,-17.97,-19.47,0,*44
1500527155.99,51275,20.0,74260.3,14.91,-18.41,-19.65,0,*43
1500527157.23,51276,20.0,74260.5,14.93,-18.17,-19.57,0,*40
1500527158.46,51277,20.0,74258.5,14.93,-17.97,-19.47,0,*47
1500527159.68,51278,20.0,74262.3,14.91,-18.11,-19.51,0,*4C
1500527160.9,51279,20.0,74258.8,14.91,-17.73,-19.07,0,*45
1500527162.11,51280,20.0,74258.3,14.93,-17.87,-19.37,0,*49
1500527163.36,51281,20.0,74258.5,14.95,-17.83,-19.27,0,*4B
1500527164.62,51282,20.0,74260.3,14.95,-18.25,-19.65,0,*4D
1500527165.85,51283,20.0,74260.3,14.95,-18.07,-19.47,0,*4C
1500527167.06,51284,20.0,74258.0,14.93,-18.17,-19.51,0,*4B
1500527168.29,51285,20.0,74260.3,14.93,-18.25,-19.57,0,*4D
1500527169.52,51286,20.0,74262.8,14.93,-17.97,-19.51,0,*4E
1500527170.75,51287,20.0,74260.3,14.93,-18.01,-19.47,0,*48
1500527171.98,51288,20.0,74262.3,14.93,-17.83,-19.23,0,*40
1500527173.24,51289,20.0,74260.3,14.95,-17.97,-19.47,0,*40
1500527174.47,51290,20.0,74260.5,14.95,-18.25,-19.75,0,*4F
1500527175.7,51291,20.0,74262.3,14.95,-18.07,-19.51,0,*48
1500527176.96,51292,20.0,74258.8,14.95,-18.41,-19.65,0,*4E
1500527178.19,51293,20.0,74260.3,14.95,-18.21,-19.51,0,*4E
1500527179.44,51294,20.0,74262.8,14.95,-18.83,-20.35,0,*49
1500527180.66,51295,20.0,74260.5,14.93,-19.07,-20.43,0,*42
1500527181.87,51296,19.94,74258.0,14.93,-19.17,-20.43,0,*40
1500527183.13,51297,20.0,74260.8,14.91,-18.89,-20.43,0,*45
1500527184.41,51298,20.0,74262.8,14.91,-19.57,-21.03,0,*4D
1500527185.67,51299,20.0,74260.5,14.91,-19.99,-21.53,0,*4B
1500527186.93,51300,20.0,74262.0,14.87,-20.25,-21.67,0,*47
1500527188.2,51301,20.0,74262.8,14.87,-20.19,-21.57,0,*4A
1500527189.46,51302,20.0,74260.3,14.87,-18.73,-20.19,0,*45
1500527190.72,51303,20.0,74258.8,14.87,-18.73,-20.19,0,*44
1500527192.0,51304,20.0,74260.8,14.87,-18.89,-20.19,0,*46
1500527193.25,51305,20.0,74260.8,14.85,-18.31,-19.65,0,*47
1500527194.49,51306,20.0,74260.5,14.87,-18.65,-19.95,0,*48
1500527195.71,51307,20.0,74262.5,14.83,-18.17,-19.51,0,*40
1500527196.95,51308,20.0,74260.5,14.87,-18.65,-19.91,0,*42
1500527198.18,51309,20.0,74266.5,14.85,-18.89,-20.43,0,*46
1500527199.4,51310,20.0,74262.3,14.83,-20.25,-21.73,0,*47
1500527200.64,51311,20.0,74264.0,14.83,-20.29,-21.67,0,*4F
1500527201.89,51312,20.0,74264.0,14.83,-19.65,-21.09,0,*46
1500527203.12,51313,20.0,74262.5,14.81,-18.99,-20.35,0,*49
1500527204.36,51314,20.0,74262.3,14.81,-19.23,-20.59,0,*44
1500527205.59,51315,20.0,74264.0,14.79,-18.73,-19.99,0,*40
1500527206.84,51316,20.0,74260.3,14.79,-18.83,-20.19,0,*4E
1500527208.07,51317,20.0,74260.5,14.79,-18.65,-19.91,0,*4D
1500527209.3,51318,20.0,74260.3,14.81,-18.35,-19.75,0,*4A
1500527210.53,51319,20.0,74262.3,14.81,-18.07,-19.41,0,*4D
1500527211.77,51320,20.0,74260.3,14.81,-18.17,-19.57,0,*41
1500527212.99,51321,20.0,74264.8,14.81,-17.87,-19.23,0,*45
1500527214.23,51322,20.0,74260.0,14.81,-18.17,-19.57,0,*43
1500527215.45,51323,20.0,74260.8,14.81,-17.55,-18.83,0,*43
1500527216.71,51324,20.0,74262.0,14.83,-16.75,-17.97,0,*4F
1500527217.94,51325,20.0,74264.5,14.85,-16.75,-17.97,0,*48
1500527219.14,51326,20.0,74262.3,14.85,-16.97,-18.17,0,*40
1500527220.4,51327,20.0,74262.8,14.85,-17.07,-18.31,0,*4D
1500527221.63,51328,20.0,74262.3,14.85,-16.75,-17.97,0,*45
1500527222.91,51329,20.0,74260.5,14.87,-17.07,-18.55,0,*43
1500527224.19,51330,20.0,74262.0,14.87,-17.21,-18.55,0,*4F
1500527225.42,51331,20.0,74262.3,14.89,-17.07,-18.49,0,*49
1500527226.62,51332,20.0,74262.8,14.89,-16.83,-18.17,0,*4C
1500527227.86,51333,20.0,74264.5,14.93,-16.65,-17.87,0,*48
1500527229.11,51334,20.0,74264.0,14.91,-17.11,-18.45,0,*4E
1500527230.32,51335,20.0,74262.5,14.93,-17.35,-18.65,0,*49
1500527231.54,51336,20.0,74264.5,14.91,-17.73,-19.03,0,*4B
1500527232.79,51337,20.0,74260.3,14.93,-17.21,-18.55,0,*4D
1500527234.05,51338,20.0,74262.0,14.95,-17.07,-18.49,0,*4D
1500527235.3,51339,20.0,74260.8,14.99,-17.11,-18.49,0,*47
1500527236.58,51340,20.0,74260.5,14.95,-17.17,-18.55,0,*4E
1500527237.82,51341,20.0,74266.0,14.99,-17.31,-18.55,0,*47
1500527239.06,51342,20.0,74266.3,14.95,-17.35,-18.73,0,*48
1500527240.34,51343,20.0,74262.3,14.95,-17.93,-19.27,0,*45
1500527241.58,51344,20.0,74260.0,14.99,-17.79,-19.07,0,*48
1500527242.85,51345,20.0,74262.5,14.95,-17.63,-18.89,0,*49
1500527244.11,51346,20.0,74262.0,14.95,-17.93,-19.13,0,*47
1500527245.36,51347,20.0,74264.0,14.99,-17.11,-18.45,0,*42
1500527246.61,51348,20.0,74262.0,14.99,-18.17,-19.41,0,*41
1500527247.87,51349,20.0,74260.8,14.99,-18.01,-19.37,0,*46
1500527249.1,51350,20.0,74264.5,14.99,-18.07,-19.37,0,*48
1500527250.35,51351,20.0,74262.5,14.95,-17.55,-18.73,0,*4C
1500527251.61,51352,20.0,74260.5,14.99,-16.69,-18.07,0,*4E
1500527252.87,51353,20.0,74260.5,14.99,-17.17,-18.49,0,*4D
1500527254.1,51354,20.0,74262.8,14.99,-17.49,-18.69,0,*43
1500527255.32,51355,20.0,74262.8,15.01,-17.25,-18.49,0,*4A
1500527256.54,51356,20.0,74260.5,15.01,-17.63,-18.79,0,*48
1500527257.8,51357,20.0,74264.5,15.03,-17.45,-18.83,0,*4A
1500527259.09,51358,20.0,74262.3,15.03,-18.01,-19.31,0,*42
1500527260.31,51359,20.0,74260.0,15.01,-17.79,-19.13,0,*41
1500527261.55,51360,20.0,74266.5,15.01,-17.45,-18.65,0,*44
1500527262.8,51361,20.0,74256.3,15.03,-17.25,-18.49,0,*4F
1500527264.03,51362,20.0,74260.8,15.01,-17.87,-19.23,0,*4B
1500527265.26,51363,20.0,74260.3,15.03,-18.11,-19.37,0,*4D
1500527266.49,51364,20.0,74262.5,15.05,-18.11,-19.41,0,*4D
1500527267.72,51365,20.0,74262.8,15.01,-17.41,-18.79,0,*48
1500527269.0,51366,20.0,74264.3,15.03,-17.55,-18.89,0,*43
1500527270.26,51367,20.0,74264.0,15.03,-18.25,-19.41,0,*4F
1500527271.49,51368,20.0,74260.3,15.03,-18.65,-19.99,0,*41
1500527272.73,51369,20.0,74262.0,15.01,-18.93,-20.29,0,*4A
1500527273.95,51370,20.0,74260.3,15.01,-18.69,-20.15,0,*48
1500527275.16,51371,20.0,74260.3,15.01,-18.83,-20.29,0,*42
1500527276.4,51372,20.0,74258.8,14.95,-19.17,-20.43,0,*4D
1500527277.64,51373,20.0,74260.8,14.95,-19.17,-20.73,0,*4F
1500527278.9,51374,20.0,74260.3,14.95,-19.61,-21.13,0,*4E
1500527280.14,51375,20.0,74262.3,14.93,-19.65,-21.17,0,*49
1500527281.4,51376,20.0,74258.3,14.91,-18.93,-20.25,0,*40
1500527282.63,51377,20.0,74262.0,14.91,-18.65,-19.99,0,*45
1500527283.88,51378,20.0,74266.5,14.91,-18.79,-20.15,0,*49
1500527285.14,51379,20.0,74260.5,14.91,-18.31,-19.71,0,*4C
1500527286.36,51380,20.0,74262.3,14.91,-18.11,-19.51,0,*4A
1500527287.6,51381,20.0,74264.5,14.91,-17.49,-18.73,0,*48
1500527288.87,51382,20.0,74260.0,14.91,-17.25,-18.55,0,*45
1500527290.11,51383,20.0,74262.3,14.93,-17.97,-19.37,0,*4A
1500527291.33,51384,20.0,74262.0,14.93,-17.35,-18.59,0,*4C
1500527292.53,51385,20.0,74262.0,14.93,-18.11,-19.47,0,*4A
1500527293.79,51386,20.0,74260.0,14.95,-18.55,-19.91,0,*44
1500527295.02,51387,20.0,74264.5,14.99,-18.69,-19.99,0,*4E
1500527296.25,51388,20.0,74264.5,14.93,-18.59,-19.95,0,*44
1500527297.48,51389,20.0,74260.0,14.91,-18.41,-19.71,0,*44
1500527298.69,51390,20.0,74260.5,14.93,-18.41,-19.71,0,*4E